Time,TemperatureF,DewpointF,PressureIn,WindDirection,WindDirectionDegrees,WindSpeedMPH,WindSpeedGustMPH,Humidity,HourlyPrecipIn,Conditions,Clouds,dailyrainin,SoftwareType,DateUTC
2013-03-07 00:01:00,18.0,15.0,-100.00,NE,45,3.0,6.0,88,0.00,,,-99.99,,2013-03-07 06:01:00,
2013-03-07 00:11:00,17.0,15.0,-100.00,ENE,60,3.0,5.0,88,0.00,,,-99.99,,2013-03-07 06:11:00,
2013-03-07 00:21:00,17.0,15.0,-100.00,NE,50,4.0,6.0,89,0.00,,,-99.99,,2013-03-07 06:21:00,
2013-03-07 00:32:00,17.0,15.0,-100.00,NE,55,4.0,5.0,89,0.00,,,-99.99,,2013-03-07 06:32:00,
2013-03-07 00:41:00,17.0,15.0,-100.00,NE,55,4.0,5.0,89,0.00,,,-99.99,,2013-03-07 06:41:00,
2013-03-07 00:51:00,17.0,15.0,-100.00,East,80,3.0,5.0,90,0.00,,,-99.99,,2013-03-07 06:51:00,
2013-03-07 01:01:00,17.0,15.0,-100.00,East,80,3.0,5.0,90,0.00,,,-99.99,,2013-03-07 07:01:00,
2013-03-07 01:11:00,17.0,15.0,-100.00,East,90,4.0,6.0,90,0.00,,,-99.99,,2013-03-07 07:11:00,
2013-03-07 01:21:00,17.0,15.0,-100.00,East,95,4.0,6.0,90,0.00,,,-99.99,,2013-03-07 07:21:00,
2013-03-07 01:32:00,18.0,16.0,-100.00,East,90,4.0,7.0,90,0.00,,,-99.99,,2013-03-07 07:32:00,
2013-03-07 01:42:00,18.0,16.0,-100.00,East,90,4.0,7.0,90,0.00,,,-99.99,,2013-03-07 07:42:00,
2013-03-07 01:52:00,17.0,15.0,-100.00,ENE,70,2.0,4.0,91,0.00,,,-99.99,,2013-03-07 07:52:00,
2013-03-07 02:02:00,17.0,15.0,-100.00,ENE,70,2.0,4.0,91,0.00,,,-99.99,,2013-03-07 08:02:00,
2013-03-07 02:12:00,17.0,15.0,-100.00,ENE,60,4.0,5.0,91,0.00,,,-99.99,,2013-03-07 08:12:00,
2013-03-07 02:22:00,16.0,14.0,-100.00,NE,55,3.0,6.0,91,0.00,,,-99.99,,2013-03-07 08:22:00,
2013-03-07 02:33:00,17.0,15.0,-100.00,ENE,75,6.0,7.0,91,0.00,,,-99.99,,2013-03-07 08:33:00,
2013-03-07 02:43:00,17.0,15.0,-100.00,ENE,75,6.0,7.0,91,0.00,,,-99.99,,2013-03-07 08:43:00,
2013-03-07 02:52:00,17.0,15.0,-100.00,East,95,6.0,7.0,91,0.00,,,-99.99,,2013-03-07 08:52:00,
2013-03-07 03:03:00,17.0,15.0,-100.00,East,95,6.0,7.0,91,0.00,,,-99.99,,2013-03-07 09:03:00,
2013-03-07 03:12:00,17.0,15.0,-100.00,East,95,6.0,7.0,91,0.00,,,-99.99,,2013-03-07 09:12:00,
2013-03-07 03:22:00,17.0,15.0,-100.00,East,90,6.0,8.0,92,0.00,,,-99.99,,2013-03-07 09:22:00,
2013-03-07 03:32:00,17.0,15.0,-100.00,East,95,6.0,7.0,92,0.00,,,-99.99,,2013-03-07 09:32:00,
2013-03-07 03:42:00,17.0,15.0,-100.00,East,95,6.0,7.0,92,0.00,,,-99.99,,2013-03-07 09:42:00,
2013-03-07 03:52:00,16.0,15.0,-100.00,East,100,4.0,6.0,92,0.00,,,-99.99,,2013-03-07 09:52:00,
2013-03-07 04:03:00,16.0,15.0,-100.00,East,100,4.0,6.0,92,0.00,,,-99.99,,2013-03-07 10:03:00,
2013-03-07 04:12:00,16.0,14.0,-100.00,East,100,4.0,5.0,92,0.00,,,-99.99,,2013-03-07 10:12:00,
2013-03-07 04:22:00,16.0,14.0,-100.00,East,100,4.0,6.0,92,0.00,,,-99.99,,2013-03-07 10:22:00,
2013-03-07 04:33:00,16.0,14.0,-100.00,ESE,115,5.0,6.0,92,0.00,,,-99.99,,2013-03-07 10:33:00,
2013-03-07 04:42:00,16.0,14.0,-100.00,ESE,115,5.0,6.0,92,0.00,,,-99.99,,2013-03-07 10:42:00,
2013-03-07 04:52:00,15.0,14.0,-100.00,ESE,115,4.0,4.0,92,0.00,,,-99.99,,2013-03-07 10:52:00,
2013-03-07 05:02:00,15.0,14.0,-100.00,ESE,115,4.0,4.0,92,0.00,,,-99.99,,2013-03-07 11:02:00,
2013-03-07 05:12:00,15.0,13.0,-100.00,ESE,110,4.0,4.0,92,0.00,,,-99.99,,2013-03-07 11:12:00,
2013-03-07 05:22:00,15.0,13.0,-100.00,ESE,120,4.0,5.0,93,0.00,,,-99.99,,2013-03-07 11:22:00,
2013-03-07 05:33:00,15.0,13.0,-100.00,East,100,3.0,4.0,93,0.00,,,-99.99,,2013-03-07 11:33:00,
2013-03-07 05:42:00,15.0,13.0,-100.00,East,100,3.0,4.0,93,0.00,,,-99.99,,2013-03-07 11:42:00,
2013-03-07 05:52:00,15.0,13.0,-100.00,ESE,115,3.0,4.0,93,0.00,,,-99.99,,2013-03-07 11:52:00,
2013-03-07 06:02:00,15.0,13.0,-100.00,ESE,115,3.0,4.0,93,0.00,,,-99.99,,2013-03-07 12:02:00,
2013-03-07 06:12:00,15.0,13.0,-100.00,East,90,2.0,4.0,93,0.00,,,-99.99,,2013-03-07 12:12:00,
2013-03-07 06:22:00,15.0,14.0,-100.00,East,85,5.0,6.0,93,0.00,,,-99.99,,2013-03-07 12:22:00,
2013-03-07 06:33:00,16.0,14.0,-100.00,East,100,6.0,7.0,93,0.00,,,-99.99,,2013-03-07 12:33:00,
2013-03-07 06:42:00,16.0,14.0,-100.00,East,100,6.0,7.0,93,0.00,,,-99.99,,2013-03-07 12:42:00,
2013-03-07 06:52:00,15.0,14.0,-100.00,East,90,6.0,7.0,93,0.00,,,-99.99,,2013-03-07 12:52:00,
2013-03-07 07:02:00,15.0,14.0,-100.00,East,90,6.0,7.0,93,0.00,,,-99.99,,2013-03-07 13:02:00,
2013-03-07 07:12:00,15.0,14.0,-100.00,ESE,105,6.0,9.0,93,0.00,,,-99.99,,2013-03-07 13:12:00,
2013-03-07 07:22:00,15.0,14.0,-100.00,ESE,105,6.0,7.0,93,0.00,,,-99.99,,2013-03-07 13:22:00,
2013-03-07 07:32:00,16.0,15.0,-100.00,ESE,110,6.0,7.0,93,0.00,,,-99.99,,2013-03-07 13:32:00,
2013-03-07 07:42:00,16.0,15.0,-100.00,ESE,110,6.0,7.0,93,0.00,,,-99.99,,2013-03-07 13:42:00,
2013-03-07 07:52:00,18.0,16.0,-100.00,ESE,120,5.0,7.0,93,0.00,,,-99.99,,2013-03-07 13:52:00,
2013-03-07 08:02:00,18.0,16.0,-100.00,ESE,120,5.0,7.0,93,0.00,,,-99.99,,2013-03-07 14:02:00,
2013-03-07 08:12:00,18.0,17.0,-100.00,ESE,115,5.0,7.0,93,0.00,,,-99.99,,2013-03-07 14:12:00,
2013-03-07 08:22:00,19.0,17.0,-100.00,SE,125,7.0,9.0,93,0.00,,,-99.99,,2013-03-07 14:22:00,
2013-03-07 08:33:00,20.0,19.0,-100.00,ESE,120,6.0,7.0,93,0.00,,,-99.99,,2013-03-07 14:33:00,
2013-03-07 08:42:00,20.0,19.0,-100.00,ESE,120,6.0,7.0,93,0.00,,,-99.99,,2013-03-07 14:42:00,
2013-03-07 08:52:00,21.0,20.0,-100.00,SE,135,7.0,9.0,93,0.00,,,-99.99,,2013-03-07 14:52:00,
2013-03-07 09:02:00,21.0,20.0,-100.00,SE,135,7.0,9.0,93,0.00,,,-99.99,,2013-03-07 15:02:00,
2013-03-07 09:12:00,21.0,20.0,-100.00,SSE,150,6.0,9.0,93,0.00,,,-99.99,,2013-03-07 15:12:00,
2013-03-07 09:22:00,21.0,20.0,-100.00,SSE,150,6.0,10.0,92,0.00,,,-99.99,,2013-03-07 15:22:00,
2013-03-07 09:32:00,23.0,21.0,-100.00,SE,135,9.0,12.0,91,0.00,,,-99.99,,2013-03-07 15:32:00,
2013-03-07 09:42:00,23.0,21.0,-100.00,SE,135,9.0,12.0,91,0.00,,,-99.99,,2013-03-07 15:42:00,
2013-03-07 09:52:00,24.0,21.0,-100.00,SSE,150,8.0,12.0,88,0.00,,,-99.99,,2013-03-07 15:52:00,
2013-03-07 10:02:00,24.0,21.0,-100.00,SSE,150,8.0,12.0,88,0.00,,,-99.99,,2013-03-07 16:02:00,
2013-03-07 10:12:00,24.0,21.0,-100.00,SSE,150,8.0,12.0,88,0.00,,,-99.99,,2013-03-07 16:12:00,
2013-03-07 10:23:00,26.0,22.0,-100.00,SE,135,7.0,-999.0,85,0.00,,,-99.99,,2013-03-07 16:23:00,
2013-03-07 10:32:00,28.0,23.0,-100.00,SSE,160,6.0,9.0,80,0.00,,,-99.99,,2013-03-07 16:32:00,
2013-03-07 10:42:00,28.0,23.0,-100.00,SSE,160,6.0,9.0,80,0.00,,,-99.99,,2013-03-07 16:42:00,
2013-03-07 10:53:00,29.0,22.0,-100.00,SE,130,7.0,11.0,76,0.00,,,-99.99,,2013-03-07 16:53:00,
2013-03-07 11:02:00,29.0,22.0,-100.00,SE,130,7.0,11.0,76,0.00,,,-99.99,,2013-03-07 17:02:00,
2013-03-07 11:12:00,29.0,22.0,-100.00,SE,145,10.0,13.0,76,0.00,,,-99.99,,2013-03-07 17:12:00,
2013-03-07 11:22:00,30.0,23.0,-100.00,SE,135,9.0,12.0,74,0.00,,,-99.99,,2013-03-07 17:22:00,
2013-03-07 11:32:00,31.0,23.0,-100.00,SE,135,10.0,14.0,70,0.00,,,-99.99,,2013-03-07 17:32:00,
2013-03-07 11:42:00,31.0,23.0,-100.00,SE,135,10.0,14.0,70,0.00,,,-99.99,,2013-03-07 17:42:00,
2013-03-07 11:53:00,31.0,22.0,-100.00,SE,145,9.0,14.0,68,0.00,,,-99.99,,2013-03-07 17:53:00,
2013-03-07 12:03:00,31.0,22.0,-100.00,SE,145,9.0,14.0,68,0.00,,,-99.99,,2013-03-07 18:03:00,
2013-03-07 12:12:00,32.0,23.0,-100.00,SE,130,10.0,12.0,67,0.00,,,-99.99,,2013-03-07 18:12:00,
2013-03-07 12:21:00,33.0,23.0,-100.00,SE,125,10.0,14.0,66,0.00,,,-99.99,,2013-03-07 18:21:00,
2013-03-07 12:32:00,34.0,23.0,-100.00,ESE,115,12.0,14.0,64,0.00,,,-99.99,,2013-03-07 18:32:00,
2013-03-07 12:42:00,34.0,23.0,-100.00,ESE,115,12.0,14.0,64,0.00,,,-99.99,,2013-03-07 18:42:00,
2013-03-07 12:52:00,34.0,23.0,-100.00,SE,125,10.0,15.0,62,0.00,,,-99.99,,2013-03-07 18:52:00,
2013-03-07 13:03:00,34.0,23.0,-100.00,SE,125,10.0,15.0,62,0.00,,,-99.99,,2013-03-07 19:03:00,
2013-03-07 13:12:00,34.0,22.0,-100.00,ESE,110,11.0,14.0,61,0.00,,,-99.99,,2013-03-07 19:12:00,
2013-03-07 13:23:00,34.0,22.0,-100.00,ESE,115,11.0,16.0,61,0.00,,,-99.99,,2013-03-07 19:23:00,
2013-03-07 13:43:00,35.0,23.0,-100.00,ESE,120,11.0,16.0,60,0.00,,,-99.99,,2013-03-07 19:43:00,
2013-03-07 13:52:00,35.0,23.0,-100.00,ESE,120,12.0,15.0,61,0.00,,,-99.99,,2013-03-07 19:52:00,
2013-03-07 14:02:00,35.0,23.0,-100.00,ESE,120,12.0,15.0,61,0.00,,,-99.99,,2013-03-07 20:02:00,
2013-03-07 14:13:00,35.0,24.0,-100.00,ESE,110,9.0,13.0,61,0.00,,,-99.99,,2013-03-07 20:13:00,
2013-03-07 14:22:00,35.0,24.0,-100.00,ESE,110,11.0,15.0,62,0.00,,,-99.99,,2013-03-07 20:22:00,
2013-03-07 14:33:00,35.0,24.0,-100.00,ESE,110,11.0,15.0,62,0.00,,,-99.99,,2013-03-07 20:33:00,
2013-03-07 14:42:00,35.0,24.0,-100.00,ESE,110,11.0,15.0,62,0.00,,,-99.99,,2013-03-07 20:42:00,
2013-03-07 14:53:00,35.0,24.0,-100.00,ESE,110,11.0,15.0,62,0.00,,,-99.99,,2013-03-07 20:53:00,
2013-03-07 15:02:00,35.0,24.0,-100.00,ESE,110,11.0,15.0,62,0.00,,,-99.99,,2013-03-07 21:02:00,
2013-03-07 15:22:00,35.0,23.0,-100.00,ESE,110,13.0,16.0,63,0.00,,,-99.99,,2013-03-07 21:22:00,
2013-03-07 15:32:00,34.0,23.0,-100.00,ESE,115,14.0,19.0,65,0.00,,,-99.99,,2013-03-07 21:32:00,
2013-03-07 15:42:00,34.0,23.0,-100.00,ESE,115,14.0,19.0,65,0.00,,,-99.99,,2013-03-07 21:42:00,
2013-03-07 15:52:00,34.0,24.0,-100.00,ESE,110,14.0,20.0,66,0.00,,,-99.99,,2013-03-07 21:52:00,
2013-03-07 16:02:00,34.0,24.0,-100.00,ESE,110,14.0,20.0,66,0.00,,,-99.99,,2013-03-07 22:02:00,
2013-03-07 16:12:00,34.0,24.0,-100.00,ESE,110,16.0,20.0,66,0.00,,,-99.99,,2013-03-07 22:12:00,
2013-03-07 16:22:00,34.0,24.0,-100.00,ESE,110,11.0,19.0,66,0.00,,,-99.99,,2013-03-07 22:22:00,
2013-03-07 16:32:00,33.0,24.0,-100.00,ESE,105,13.0,19.0,66,0.00,,,-99.99,,2013-03-07 22:32:00,
2013-03-07 16:42:00,33.0,24.0,-100.00,ESE,105,13.0,19.0,66,0.00,,,-99.99,,2013-03-07 22:42:00,
2013-03-07 16:52:00,32.0,23.0,-100.00,East,100,14.0,19.0,68,0.00,,,-99.99,,2013-03-07 22:52:00,
2013-03-07 17:02:00,32.0,23.0,-100.00,East,100,14.0,19.0,68,0.00,,,-99.99,,2013-03-07 23:02:00,
2013-03-07 17:12:00,32.0,23.0,-100.00,East,100,13.0,18.0,69,0.00,,,-99.99,,2013-03-07 23:12:00,
2013-03-07 17:22:00,32.0,23.0,-100.00,ESE,105,14.0,20.0,70,0.00,,,-99.99,,2013-03-07 23:22:00,
2013-03-07 17:33:00,31.0,23.0,-100.00,ESE,110,14.0,19.0,70,0.00,,,-99.99,,2013-03-07 23:33:00,
2013-03-07 17:42:00,31.0,23.0,-100.00,ESE,110,14.0,19.0,70,0.00,,,-99.99,,2013-03-07 23:42:00,
2013-03-07 17:52:00,31.0,23.0,-100.00,ESE,110,11.0,16.0,71,0.00,,,-99.99,,2013-03-07 23:52:00,
2013-03-07 18:03:00,31.0,23.0,-100.00,ESE,110,11.0,16.0,71,0.00,,,-99.99,,2013-03-08 00:03:00,
2013-03-07 18:13:00,31.0,23.0,-100.00,ESE,110,11.0,16.0,71,0.00,,,-99.99,,2013-03-08 00:13:00,
2013-03-07 18:22:00,30.0,22.0,-100.00,ESE,115,13.0,19.0,72,0.00,,,-99.99,,2013-03-08 00:22:00,
2013-03-07 18:33:00,30.0,22.0,-100.00,ESE,105,12.0,20.0,73,0.00,,,-99.99,,2013-03-08 00:33:00,
2013-03-07 18:43:00,30.0,22.0,-100.00,ESE,105,12.0,20.0,73,0.00,,,-99.99,,2013-03-08 00:43:00,
2013-03-07 18:54:00,29.0,22.0,-100.00,ESE,105,12.0,16.0,74,0.00,,,-99.99,,2013-03-08 00:54:00,
2013-03-07 19:01:00,29.0,23.0,-100.00,ESE,115,14.0,18.0,77,0.00,,,-99.99,,2013-03-08 01:01:00,
2013-03-07 19:02:00,29.0,22.0,-100.00,ESE,105,12.0,16.0,74,0.00,,,-99.99,,2013-03-08 01:02:00,
2013-03-07 19:11:00,29.0,22.0,-100.00,ESE,105,12.0,16.0,74,0.00,,,-99.99,,2013-03-08 01:11:00,
2013-03-07 19:21:00,29.0,23.0,-100.00,ESE,115,14.0,18.0,77,0.00,,,-99.99,,2013-03-08 01:21:00,
2013-03-07 19:32:00,29.0,23.0,-100.00,ESE,115,14.0,18.0,77,0.00,,,-99.99,,2013-03-08 01:32:00,
2013-03-07 19:42:00,29.0,23.0,-100.00,ESE,115,14.0,18.0,77,0.00,,,-99.99,,2013-03-08 01:42:00,
2013-03-07 19:52:00,29.0,23.0,-100.00,ESE,115,14.0,18.0,77,0.00,,,-99.99,,2013-03-08 01:52:00,
2013-03-07 21:33:00,26.0,23.0,-100.00,ESE,115,9.0,14.0,88,0.00,,,-99.99,,2013-03-08 03:33:00,
2013-03-07 21:43:00,26.0,23.0,-100.00,ESE,115,9.0,14.0,88,0.00,,,-99.99,,2013-03-08 03:43:00,
2013-03-07 21:53:00,26.0,23.0,-100.00,SE,125,12.0,14.0,88,0.00,,,-99.99,,2013-03-08 03:53:00,
2013-03-07 22:01:00,26.0,23.0,-100.00,SE,125,12.0,14.0,88,0.00,,,-99.99,,2013-03-08 04:01:00,
2013-03-07 22:11:00,26.0,23.0,-100.00,ESE,120,10.0,13.0,88,0.00,,,-99.99,,2013-03-08 04:11:00,
2013-03-07 22:21:00,26.0,23.0,-100.00,ESE,120,10.0,15.0,88,0.00,,,-99.99,,2013-03-08 04:21:00,
2013-03-07 22:32:00,26.0,23.0,-100.00,SE,125,10.0,12.0,88,0.00,,,-99.99,,2013-03-08 04:32:00,
2013-03-07 22:42:00,26.0,23.0,-100.00,SE,125,10.0,12.0,88,0.00,,,-99.99,,2013-03-08 04:42:00,
2013-03-07 22:52:00,26.0,23.0,-100.00,SE,130,9.0,12.0,88,0.00,,,-99.99,,2013-03-08 04:52:00,
2013-03-07 23:02:00,26.0,23.0,-100.00,ESE,120,11.0,14.0,88,0.00,,,-99.99,,2013-03-08 05:02:00,
2013-03-07 23:12:00,26.0,23.0,-100.00,ESE,120,10.0,13.0,88,0.00,,,-99.99,,2013-03-08 05:12:00,
2013-03-07 23:22:00,26.0,23.0,-100.00,ESE,120,9.0,12.0,88,0.00,,,-99.99,,2013-03-08 05:22:00,
2013-03-07 23:32:00,26.0,23.0,-100.00,ESE,115,9.0,14.0,88,0.00,,,-99.99,,2013-03-08 05:32:00,
2013-03-07 23:42:00,26.0,23.0,-100.00,ESE,115,9.0,14.0,88,0.00,,,-99.99,,2013-03-08 05:42:00,
2013-03-07 23:52:00,25.0,22.0,-100.00,ESE,120,9.0,12.0,88,0.00,,,-99.99,,2013-03-08 05:52:00,